Location: Wildlife_Club
(35.6000°N, 81.4330°W)
Time: 21:09:33
(UTC-04:00)

A-11 Canister half - Pass Details

Date: 18 June 2019
Orbit: 1526 x 1683 km, 47.3° (Epoch: 18 August)

Event Time Altitude Azimuth Distance (km) Brightness Sun altitude
Exits shadow 04:05:10 - 169° (S) 3,893 10.7 -20.1°
Reaches altitude 10° 04:05:46 10° 166° (SSE) 3,768 10.7 -20.0°
Maximum altitude 04:11:56 19° 125° (SE) 3,058 10.6 -19.2°
Drops below altitude 10° 04:17:59 10° 84° (E) 3,713 11.7 -18.4°
Sets 04:22:07 0° 68° (ENE) 4,686 12.7 -17.9°
